This is the latest recevied weather packets stored in our database for station/object WW5JC. If no packets are shown the sender has not sent any weather packets the latest 10 day(s).
| Time | Temp. | Humidity | Pressure | Rain* | Wind** | Luminosity | Snow |
|---|---|---|---|---|---|---|---|
| 1777410850 | 25° C | 91% | 1011.6 hPa | 0 mm | - | 21 W/m² | - |
| 1777410550 | 25° C | 91% | 1011.2 hPa | 0 mm | - | 23 W/m² | - |
| 1777410250 | 25° C | 90% | 1011.2 hPa | 0 mm | - | 28 W/m² | - |
| 1777409944 | 25° C | 90% | 1011.5 hPa | 0 mm | - | 35 W/m² | - |
| 1777409639 | 25.56° C | 90% | 1011.6 hPa | 0 mm | - | 29 W/m² | - |
| 1777409335 | 25.56° C | 91% | 1012.3 hPa | 0 mm | - | 17 W/m² | - |
| 1777409031 | 25.56° C | 90% | 1012.1 hPa | 0 mm | - | 20 W/m² | - |
| 1777408728 | 25.56° C | 90% | 1012.2 hPa | 0 mm | - | 19 W/m² | - |
| 1777408424 | 25.56° C | 90% | 1012 hPa | 0 mm | - | 24 W/m² | - |
| 1777408118 | 25.56° C | 90% | 1011.8 hPa | 0 mm | - | 30 W/m² | - |
| 1777407813 | 25.56° C | 90% | 1011.8 hPa | 0 mm | - | 26 W/m² | - |
| 1777407511 | 25.56° C | 90% | 1011.7 hPa | 0 mm | - | 42 W/m² | - |
| 1777407205 | 25.56° C | 90% | 1011.8 hPa | 0 mm | - | 32 W/m² | - |
| 1777406901 | 26.11° C | 89% | 1011.9 hPa | 0 mm | - | 50 W/m² | - |
| 1777406596 | 26.11° C | 89% | 1012.1 hPa | 0 mm | - | 65 W/m² | - |
| 1777406292 | 26.11° C | 89% | 1011.8 hPa | 0 mm | - | 57 W/m² | - |
| 1777405990 | 26.11° C | 88% | 1011.7 hPa | 0 mm | - | 78 W/m² | - |
| 1777405687 | 26.67° C | 88% | 1011.9 hPa | 0 mm | - | 57 W/m² | - |
| 1777405384 | 26.67° C | 87% | 1011.8 hPa | 0 mm | - | 87 W/m² | - |
| 1777405080 | 26.67° C | 87% | 1011.7 hPa | 0 mm | - | 147 W/m² | - |
| 1777404775 | 26.67° C | 86% | 1012 hPa | 0 mm | - | 118 W/m² | - |
| 1777404471 | 26.67° C | 87% | 1012 hPa | 0 mm | - | 286 W/m² | - |
| 1777404167 | 26.67° C | 87% | 1012.4 hPa | 0 mm | - | 259 W/m² | - |
| 1777403858 | 26.67° C | 87% | 1012.6 hPa | 0 mm | - | 120 W/m² | - |
| 1777403553 | 26.67° C | 88% | 1012.6 hPa | 0 mm | - | 152 W/m² | - |
* Rain latest hour (hover to see other rain measurements)
** Current wind speed in m/s (hover to see current wind gust speed)